Date String (YYYY-MM-DD hh:mm:ss) UTC,Instrument flags,absolute air pressure of the measurement (hPa),sample flow rate (lpm),inlet stack bypass flow (lpm),air temperature of the measurement (°C),ambient temperature measured by the external sensor (°C),aerosol sample conditioner tube jacket temperature (°C),OPC LED temperature (°C),internal box temperature (°C),relative humidity of the measurement (%),span deviation,mass concentration of particles derived from Lorenz-Mie calculation of OPC scattering (μg/m³),mass concentration of particles derived from Lorenz-Mie calculation of OPC scattering (μg/m³),mass concentration of particles derived from Lorenz-Mie calculation of OPC scattering (μg/m³)
DateTimeUTC,F1_M11,P_M11,Q1_M11,Q2_M11,T1_M11,T2_M11,T3_M11,T4_M11,T5_M11,U1_M11,ZSPAN_M11,X0_M11,X2_M11,X1_M11
2023-07-13 08:00:00,SystemResetWarning,0831.1,4.99,000.00,029.1,026.7,000.0,037.6,030.6,25.3,0000.0,0008.18,0003.62,0003.04
2023-07-13 08:01:00,SystemResetWarning,0831.1,5.00,000.00,029.1,027.0,000.0,037.6,030.7,25.2,0000.0,0008.48,0003.65,0003.05
2023-07-13 08:02:00,SystemResetWarning,0831.0,5.00,000.00,029.2,027.3,000.0,037.6,030.8,25.0,0000.0,0008.06,0003.65,0003.03
2023-07-13 08:03:00,SystemResetWarning,0830.9,5.00,000.00,029.2,027.5,000.0,037.6,030.8,25.7,0000.0,0007.69,0003.65,0003.03
2023-07-13 08:04:00,SystemResetWarning,0830.9,5.00,000.00,029.2,027.7,000.0,037.6,030.9,25.2,0000.0,0008.19,0003.65,0003.03
2023-07-13 08:05:00,SystemResetWarning,0830.9,5.00,000.00,029.2,027.9,000.0,037.7,030.9,25.0,0000.0,0008.21,0003.65,0003.03
2023-07-13 08:06:00,SystemResetWarning,0831.0,5.00,000.00,029.3,028.0,000.0,037.7,031.0,25.3,0000.0,0008.22,0003.65,0003.03
2023-07-13 08:07:00,SystemResetWarning,0831.0,4.99,000.00,029.3,028.1,000.0,037.7,031.0,25.4,0000.0,0008.94,0003.65,0003.02
2023-07-13 08:08:00,SystemResetWarning,0831.1,4.99,000.00,029.4,028.2,000.0,037.7,031.1,25.7,0000.0,0009.01,0003.68,0003.01
2023-07-13 08:09:00,SystemResetWarning,0831.2,5.00,000.00,029.4,028.2,000.0,037.8,031.1,26.0,0000.0,0008.88,0003.65,0003.00
2023-07-13 08:10:00,SystemResetWarning,0831.1,5.00,000.00,029.4,026.7,000.0,037.7,030.9,26.2,0000.0,0009.13,0003.63,0003.00
2023-07-13 08:11:00,SystemResetWarning,0831.2,5.01,000.00,029.3,025.5,000.0,037.6,030.7,26.6,0000.0,0009.28,0003.62,0002.99
2023-07-13 08:12:00,SystemResetWarning,0831.1,5.01,000.00,029.2,025.5,000.0,037.5,030.5,27.2,0000.0,0009.08,0003.61,0002.98
2023-07-13 08:13:00,SystemResetWarning,0831.1,5.00,000.00,029.2,025.8,000.0,037.6,030.5,27.4,0000.0,0008.51,0003.59,0002.98
2023-07-13 08:14:00,SystemResetWarning,0831.1,5.00,000.00,029.1,026.2,000.0,037.6,030.5,27.4,0000.0,0008.65,0003.60,0002.99
2023-07-13 08:15:00,SystemResetWarning,0831.1,5.01,000.00,029.1,026.6,000.0,037.6,030.6,27.8,0000.0,0008.29,0003.60,0003.00
2023-07-13 08:16:00,SystemResetWarning,0831.1,4.99,000.00,029.1,026.9,000.0,037.6,030.7,27.5,0000.0,0008.27,0003.64,0003.04
2023-07-13 08:17:00,SystemResetWarning,0831.1,5.00,000.00,029.2,027.2,000.0,037.6,030.8,27.3,0000.0,0008.91,0003.65,0003.07
2023-07-13 08:18:00,SystemResetWarning,0831.1,5.00,000.00,029.2,027.5,000.0,037.7,030.8,27.2,0000.0,0009.04,0003.68,0003.10
2023-07-13 08:19:00,SystemResetWarning,0831.1,5.00,000.00,029.2,027.7,000.0,037.7,030.9,27.2,0000.0,0009.37,0003.70,0003.12
2023-07-13 08:20:00,SystemResetWarning,0831.1,5.00,000.00,029.3,027.8,000.0,037.7,030.9,27.3,0000.0,0010.10,0003.80,0003.14
2023-07-13 08:21:00,SystemResetWarning,0831.1,5.00,000.00,029.3,028.0,000.0,037.7,031.0,27.0,0000.0,0009.91,0003.83,0003.17
2023-07-13 08:22:00,SystemResetWarning,0831.1,5.00,000.00,029.3,028.1,000.0,037.7,031.0,27.2,0000.0,0009.88,0003.88,0003.20
2023-07-13 08:23:00,SystemResetWarning,0831.1,5.00,000.00,029.4,028.2,000.0,037.8,031.1,27.5,0000.0,0010.32,0003.91,0003.21
2023-07-13 08:24:00,SystemResetWarning,0831.2,4.98,000.00,029.4,027.5,000.0,037.7,031.0,27.6,0000.0,0010.33,0003.92,0003.23
2023-07-13 08:25:00,SystemResetWarning,0831.2,5.01,000.00,029.3,025.8,000.0,037.6,030.8,27.5,0000.0,0010.15,0003.91,0003.24
2023-07-13 08:26:00,SystemResetWarning,0831.2,5.01,000.00,029.3,025.4,000.0,037.5,030.6,27.1,0000.0,0009.92,0003.95,0003.26
2023-07-13 08:27:00,SystemResetWarning,0831.2,5.01,000.00,029.2,025.6,000.0,037.6,030.4,28.4,0000.0,0010.38,0004.00,0003.28
2023-07-13 08:28:00,SystemResetWarning,0831.2,5.00,000.00,029.1,026.0,000.0,037.6,030.5,28.4,0000.0,0010.59,0004.04,0003.30
2023-07-13 08:29:00,SystemResetWarning,0831.2,5.00,000.00,029.1,026.3,000.0,037.6,030.6,27.9,0000.0,0010.02,0004.06,0003.31
2023-07-13 08:30:00,SystemResetWarning,0831.2,4.99,000.00,029.1,026.7,000.0,037.6,030.6,27.3,0000.0,0009.80,0004.07,0003.33
2023-07-13 08:31:00,SystemResetWarning,0831.2,5.00,000.00,029.1,027.0,000.0,037.6,030.7,28.2,0000.0,0008.98,0004.04,0003.36
2023-07-13 08:32:00,SystemResetWarning,0831.1,5.01,000.00,029.2,027.3,000.0,037.7,030.8,28.5,0000.0,0009.29,0004.06,0003.39
2023-07-13 08:33:00,SystemResetWarning,0831.1,4.99,000.00,029.2,027.5,000.0,037.7,030.8,27.9,0000.0,0009.55,0004.08,0003.41
2023-07-13 08:34:00,SystemResetWarning,0831.2,4.99,000.00,029.2,027.7,000.0,037.7,030.9,27.6,0000.0,0009.26,0004.10,0003.43
2023-07-13 08:35:00,SystemResetWarning,0831.1,4.99,000.00,029.3,027.9,000.0,037.7,030.9,28.2,0000.0,0009.28,0004.17,0003.48
2023-07-13 08:36:00,SystemResetWarning,0831.1,5.00,000.00,029.3,028.0,000.0,037.7,031.0,28.0,0000.0,0009.56,0004.25,0003.53
2023-07-13 08:37:00,SystemResetWarning,0831.0,5.00,000.00,029.3,028.1,000.0,037.7,031.0,27.8,0000.0,0009.69,0004.26,0003.56
2023-07-13 08:38:00,SystemResetWarning,0831.0,5.01,000.00,029.4,028.2,000.0,037.8,031.0,28.1,0000.0,0009.97,0004.24,0003.58
2023-07-13 08:39:00,SystemResetWarning,0831.0,5.00,000.00,029.4,028.3,000.0,037.8,031.1,27.4,0000.0,0009.15,0004.24,0003.60
2023-07-13 08:40:00,SystemResetWarning,0830.9,4.99,000.00,029.4,027.6,000.0,037.8,031.0,26.8,0000.0,0008.98,0004.26,0003.62
2023-07-13 08:41:00,SystemResetWarning,0830.9,5.00,000.00,029.4,025.8,000.0,037.6,030.7,27.0,0000.0,0009.00,0004.31,0003.65
2023-07-13 08:42:00,SystemResetWarning,0830.9,5.02,000.00,029.3,025.4,000.0,037.6,030.6,27.0,0000.0,0009.01,0004.33,0003.65
2023-07-13 08:43:00,SystemResetWarning,0830.8,5.00,000.00,029.2,025.6,000.0,037.6,030.5,27.3,0000.0,0008.79,0004.34,0003.65
2023-07-13 08:44:00,SystemResetWarning,0830.8,5.00,000.00,029.1,026.0,000.0,037.6,030.5,27.7,0000.0,0008.76,0004.41,0003.66
2023-07-13 08:45:00,SystemResetWarning,0830.7,5.01,000.00,029.1,026.4,000.0,037.6,030.6,27.5,0000.0,0008.89,0004.47,0003.67
2023-07-13 08:46:00,SystemResetWarning,0830.7,5.00,000.00,029.1,026.7,000.0,037.6,030.6,27.1,0000.0,0009.42,0004.51,0003.68
2023-07-13 08:47:00,SystemResetWarning,0830.7,4.99,000.00,029.2,027.0,000.0,037.7,030.7,27.4,0000.0,0009.74,0004.51,0003.67
2023-07-13 08:48:00,SystemResetWarning,0830.7,5.00,000.00,029.2,027.3,000.0,037.7,030.8,27.3,0000.0,0009.71,0004.55,0003.66
2023-07-13 08:49:00,SystemResetWarning,0830.7,5.00,000.00,029.2,027.5,000.0,037.7,030.8,27.5,0000.0,0009.82,0004.58,0003.65
2023-07-13 08:50:00,SystemResetWarning,0830.7,5.00,000.00,029.2,027.7,000.0,037.7,030.9,27.9,0000.0,0010.05,0004.58,0003.65
2023-07-13 08:51:00,SystemResetWarning,0830.7,5.01,000.00,029.3,027.8,000.0,037.7,030.9,28.1,0000.0,0010.11,0004.57,0003.63
2023-07-13 08:52:00,SystemResetWarning,0830.7,5.00,000.00,029.3,027.9,000.0,037.7,030.9,28.2,0000.0,0010.15,0004.57,0003.60
2023-07-13 08:53:00,SystemResetWarning,0830.7,4.99,000.00,029.3,028.1,000.0,037.7,031.0,28.2,0000.0,0010.29,0004.55,0003.58
2023-07-13 08:54:00,SystemResetWarning,0830.7,4.99,000.00,029.4,028.2,000.0,037.8,031.0,28.4,0000.0,0010.49,0004.50,0003.55
2023-07-13 08:55:00,SystemResetWarning,0830.7,5.00,000.00,029.4,028.2,000.0,037.8,031.0,28.4,0000.0,0010.05,0004.36,0003.51
2023-07-13 08:56:00,SystemResetWarning,0830.7,5.01,000.00,029.4,028.3,000.0,037.8,031.1,28.7,0000.0,0009.83,0004.23,0003.47
2023-07-13 08:57:00,SystemResetWarning,0830.6,4.99,000.00,029.5,027.7,000.0,037.8,031.1,28.4,0000.0,0009.39,0004.15,0003.43
2023-07-13 08:58:00,SystemResetWarning,0830.6,5.00,000.00,029.4,025.8,000.0,037.7,030.8,28.3,0000.0,0008.92,0004.09,0003.39
2023-07-13 08:59:00,SystemResetWarning,0830.6,5.02,000.00,029.3,025.2,000.0,037.6,030.6,28.6,0000.0,0008.84,0004.06,0003.38
